Location: Madrid
(40.4000°N, 3.6830°W)
Time: 20:29:27
(UTC+02:00)

ISS - Pass Details

Date: 30 March 2017
Orbit: 401 x 409 km, 51.6° (Epoch: 01 May)

Event Time Altitude Azimuth Distance (km) Brightness Sun altitude
Rises 22:10:10 0° 263° (W) 2,313 1.1 -17.9°
Reaches altitude 10° 22:12:28 10° 278° (W) 1,458 0.1 -18.3°
Maximum altitude 22:15:14 25° 335° (NNW) 867 -1.7 -18.8°
Enters shadow 22:17:30 13° 28° (NNE) 1,295 -1.3 -19.2°
